Short Creek, WV

12:43 AM EST on February 28, 2017 (GMT -0500)
Wheeling-Ohio County

Weather History for KHLG - January, 2013

Change the Weather History Date:

Saturday, January 19, 2013

  Actual Average Record
Temperature  
Mean Temperature 43 °F 29 °F  
Max Temperature 52 °F 36 °F 63 °F (1949)
Min Temperature 33 °F 22 °F 5 °F (2016)
Degree Days  
Heating Degree Days 22 36  
Month to date heating degree days 559 684  
Since 1 July heating degree days 2585 2809  
Cooling Degree Days 0    
Month to date cooling degree days 0  
Year to date cooling degree days 0  
Moisture  
Dew Point 18 °F    
Average Humidity 38    
Maximum Humidity 51    
Minimum Humidity 24    
Precipitation  
Precipitation 0.00 in 0.07 in 0.20 in (2001)
Month to date precipitation 0.58 1.93  
Sea Level Pressure  
Sea Level Pressure 30.07 in    
Wind  
Wind Speed 17 mph (SW)    
Max Wind Speed 26 mph    
Max Gust Speed 37 mph    
Visibility 10 miles    
Events      
T = Trace of Precipitation, MM = Missing Value Source: NWS Daily Summary

Daily Weather History Graph

Daily Weather History Graph

Search for Another Location

Airport or City:

Trip Planner

Search our weather history database for the weather conditions in past years. The results will help you decide how hot, cold, wet, or windy it might be!

Date:

Astronomy

Jan. 19, 2013 Rise Set
Actual Time 7:41 AM EST 5:26 PM EST
Civil Twilight 7:11 AM EST 5:55 PM EST
Nautical Twilight 6:38 AM EST 6:29 PM EST
Astronomical Twilight 6:05 AM EST 7:01 PM EST
Moon 11:51 AM EST (1/19) 1:13 AM EST (1/19)
Length of Visible Light 10h 44m
Length of Day
9h 45m
First Quarter, 57% of the Moon is Illuminated
Jan 19
First Quarter
Jan 26
Full
Feb 3
Last Quarter
Feb 10
New
Feb 17
First Quarter

Hourly Weather History & Observations

Time (EST) Temp. Windchill Dew Point Humidity Pressure Visibility Wind Dir Wind Speed Gust Speed Precip Events Conditions
1:53 AM 35.1 °F 25.5 °F 15.1 °F 44% 30.25 in 10.0 mi SW 15.0 mph 24.2 mph N/A   Scattered Clouds
2:53 AM 35.1 °F 25.9 °F 15.1 °F 44% 30.24 in 10.0 mi SW 13.8 mph 21.9 mph N/A   Mostly Cloudy
3:53 AM 35.1 °F 26.9 °F 16.0 °F 46% 30.23 in 10.0 mi SW 11.5 mph 19.6 mph N/A   Partly Cloudy
4:53 AM 35.1 °F 26.4 °F 17.1 °F 48% 30.22 in 10.0 mi SW 12.7 mph 24.2 mph N/A   Clear
5:53 AM 36.0 °F 25.6 °F 16.0 °F 44% 30.21 in 10.0 mi SSW 18.4 mph 23.0 mph N/A   Clear
6:53 AM 36.0 °F 26.0 °F 17.1 °F 46% 30.21 in 10.0 mi SSW 17.3 mph 24.2 mph N/A   Clear
7:53 AM 36.0 °F 27.1 °F 16.0 °F 44% 30.20 in 10.0 mi SW 13.8 mph 21.9 mph N/A   Clear
8:53 AM 39.0 °F 29.0 °F 17.1 °F 41% 30.20 in 10.0 mi SW 20.7 mph 29.9 mph N/A   Clear
9:53 AM 41.0 °F 31.4 °F 19.0 °F 41% 30.20 in 10.0 mi SW 21.9 mph 32.2 mph N/A   Clear
10:53 AM 44.1 °F 36.2 °F 19.0 °F 37% 30.18 in 10.0 mi SW 18.4 mph 36.8 mph N/A   Clear
11:53 AM 46.0 °F 39.9 °F 16.0 °F 30% 30.14 in 10.0 mi SW 13.8 mph 33.4 mph N/A   Clear
12:53 PM 48.0 °F - 15.1 °F 27% 30.09 in 10.0 mi SW 21.9 mph 34.5 mph N/A   Clear
1:53 PM 50.0 °F - 16.0 °F 26% 30.05 in 10.0 mi SW 15.0 mph 35.7 mph N/A   Clear
2:53 PM 51.1 °F - 17.1 °F 26% 30.02 in 10.0 mi SW 17.3 mph 28.8 mph N/A   Clear
3:53 PM 51.1 °F - 18.0 °F 27% 29.99 in 10.0 mi SW 20.7 mph 26.5 mph N/A   Clear
4:53 PM 50.0 °F - 18.0 °F 28% 29.97 in 10.0 mi SW 17.3 mph 26.5 mph N/A   Clear
5:53 PM 48.0 °F - 18.0 °F 30% 29.96 in 10.0 mi SSW 12.7 mph - N/A   Clear
6:53 PM 48.0 °F - 18.0 °F 30% 29.93 in 10.0 mi SSW 18.4 mph 28.8 mph N/A   Clear
7:53 PM 48.0 °F - 19.0 °F 32% 29.91 in 10.0 mi SSW 23.0 mph 33.4 mph N/A   Clear
8:53 PM 48.0 °F - 19.0 °F 32% 29.89 in 10.0 mi SSW 15.0 mph 29.9 mph N/A   Clear
9:53 PM 46.9 °F - 19.0 °F 33% 29.88 in 10.0 mi SW 18.4 mph 27.6 mph N/A   Clear
10:53 PM 46.0 °F 39.3 °F 19.9 °F 35% 29.87 in 10.0 mi SW 16.1 mph 24.2 mph N/A   Clear
11:53 PM 46.0 °F 38.5 °F 21.9 °F 39% 29.86 in 10.0 mi SW 19.6 mph 29.9 mph N/A   Clear